Weather History for Fort Wayne, IN

Change the Weather History Date:

Friday, August 31, 2012

  Actual Average Record
Temperature  
Mean Temperature 74 °F 70 °F  
Max Temperature 91 °F 81 °F 98 °F (1951)
Min Temperature 56 °F 58 °F 43 °F (1915)
Degree Days  
Heating Degree Days 0 1  
Month to date heating degree days 5 4  
Since 1 June heating degree days 31 41  
Since 1 July heating degree days 5 12  
Cooling Degree Days 9 5  
Month to date cooling degree days 176 211  
Year to date cooling degree days 1027 717  
Since 1 June cooling degree days 874 660  
Growing Degree Days 23 (Base 50)    
Moisture  
Dew Point 66 °F    
Average Humidity 75    
Maximum Humidity 93    
Minimum Humidity 56    
Precipitation  
Precipitation 0.00 in 0.11 in 1.17 in (1950)
Month to date precipitation 3.51 3.64  
Year to date precipitation 18.86 26.84  
Snow  
Snow 0.00 in 0.00 in 0.00 in (2002)
Month to date snowfall 0.0 0.0  
Since 1 June snowfall 0.0  
Since 1 July snowfall 0.0 0.0  
Snow Depth 0.00 in    
Sea Level Pressure  
Sea Level Pressure 30.08 in    
Wind  
Wind Speed 7 mph (SW)    
Max Wind Speed 20 mph    
Max Gust Speed 25 mph    
Visibility 10 miles    
Events      
T = Trace of Precipitation, MM = Missing Value Source: NWS Daily Summary

Daily Weather History Graph

Daily Weather History Graph

Search for Another Location

Airport:

Trip Planner

Search our weather history database for the weather conditions in past years. The results will help you decide how hot, cold, wet, or windy it might be!

Date:

Astronomy

Aug. 31, 2012 Rise Set
Actual Time 7:06 AM EDT 8:14 PM EDT
Civil Twilight 6:38 AM EDT 8:42 PM EDT
Nautical Twilight 6:04 AM EDT 9:15 PM EDT
Astronomical Twilight 5:29 AM EDT 9:51 PM EDT
Moon 7:59 PM EDT 7:11 AM EDT
Length of Visible Light 14h 03m
Length of Day
13h 07m
Full, 100% of the Moon is Illuminated
Aug 31
Full
Sep 8
Last Quarter
Sep 15
New
Sep 22
First Quarter
Sep 29
Full

Hourly Weather History & Observations

Time (EDT) Temp. Heat Index Dew Point Humidity Pressure Visibility Wind Dir Wind Speed Gust Speed Precip Events Conditions
12:54 AM 63.0 °F - 57.0 °F 81% 30.05 in 10.0 mi Calm Calm - N/A   Clear
1:54 AM 59.0 °F - 55.0 °F 87% 30.06 in 10.0 mi WSW 3.5 mph - N/A   Clear
2:54 AM 59.0 °F - 55.0 °F 87% 30.05 in 10.0 mi Calm Calm - N/A   Clear
3:54 AM 57.9 °F - 54.0 °F 87% 30.06 in 10.0 mi Calm Calm - N/A   Clear
4:54 AM 57.9 °F - 55.0 °F 90% 30.06 in 9.0 mi Calm Calm - N/A   Clear
5:54 AM 59.0 °F - 55.0 °F 87% 30.06 in 10.0 mi South 3.5 mph - N/A   Clear
6:54 AM 60.1 °F - 55.9 °F 86% 30.08 in 10.0 mi SW 10.4 mph - N/A   Clear
7:54 AM 63.0 °F - 60.1 °F 90% 30.10 in 10.0 mi SW 5.8 mph - N/A   Clear
8:54 AM 71.1 °F - 66.9 °F 87% 30.12 in 10.0 mi SW 5.8 mph - N/A   Clear
9:54 AM 77.0 °F - 70.0 °F 79% 30.12 in 10.0 mi WSW 11.5 mph - N/A   Clear
10:54 AM 82.0 °F 86.3 °F 71.1 °F 69% 30.12 in 10.0 mi WSW 12.7 mph - N/A   Partly Cloudy
11:54 AM 84.9 °F 90.7 °F 72.0 °F 65% 30.12 in 10.0 mi WSW 10.4 mph - N/A   Partly Cloudy
12:54 PM 87.1 °F 93.6 °F 72.0 °F 61% 30.10 in 10.0 mi SW 12.7 mph - N/A   Scattered Clouds
1:54 PM 89.1 °F 95.0 °F 71.1 °F 55% 30.10 in 10.0 mi SW 13.8 mph 21.9 mph N/A   Mostly Cloudy
2:54 PM 89.1 °F 97.0 °F 73.0 °F 59% 30.08 in 10.0 mi WSW 13.8 mph 18.4 mph N/A   Mostly Cloudy
3:54 PM 90.0 °F 96.4 °F 71.1 °F 54% 30.06 in 10.0 mi WSW 16.1 mph 21.9 mph N/A   Mostly Cloudy
4:54 PM 84.9 °F 90.7 °F 72.0 °F 65% 30.06 in 10.0 mi SW 17.3 mph - N/A   Mostly Cloudy
5:54 PM 84.0 °F 89.0 °F 71.1 °F 65% 30.05 in 10.0 mi WSW 9.2 mph - N/A   Mostly Cloudy
6:54 PM 82.9 °F 88.0 °F 72.0 °F 69% 30.05 in 10.0 mi West 4.6 mph - N/A   Mostly Cloudy
7:54 PM 81.0 °F 85.8 °F 73.0 °F 77% 30.05 in 10.0 mi SSW 4.6 mph - N/A   Mostly Cloudy
8:54 PM 77.0 °F - 72.0 °F 84% 30.06 in 10.0 mi SSW 5.8 mph - N/A   Mostly Cloudy
9:54 PM 75.9 °F - 72.0 °F 87% 30.06 in 10.0 mi SSW 5.8 mph - N/A   Mostly Cloudy
10:54 PM 73.9 °F - 71.1 °F 91% 30.07 in 10.0 mi Calm Calm - N/A   Mostly Cloudy
11:54 PM 73.9 °F - 71.1 °F 91% 30.07 in 10.0 mi Calm Calm - N/A   Mostly Cloudy